Regional Weather Roundup
Issued by NWS

Home | Current Version | Previous Version | Graphics & Text | Print | Product List | Glossary On
Versions: 1 2 3 4 5 6 7 8 9 10 11 12 13 14 15 16 17 18 19 20 21 22 23 24 25 26 27 28 29 30 31 32 33 34 35 36 37 38 39 40 41 42 43 44 45 46 47 48 49 50
000
ASUS43 KOAX 240102
RWRNE

WEATHER ROUNDUP FOR NEBRASKA
NATIONAL WEATHER SERVICE OMAHA NE
800 PM CDT SAT MAY 23 2015

NOTES: SATELLITE DATA IS BEING USED TO AUGMENT CLOUD COVER ABOVE
       12000 FEET.
       "FAIR" INDICATES FEW OR NO CLOUDS BELOW 12,000 FEET WITH NO
       SIGNIFICANT WEATHER AND/OR OBSTRUCTIONS TO VISIBILITY.

  * THESE STATIONS DO NOT REPORT WEATHER SUCH AS RAIN...SNOW OR FOG.

NEZ001>004-019>022-054>056-240200-
NEBRASKA PANHANDLE

CITY           SKY/WX    TMP DP  RH WIND       PRES   REMARKS
SCOTTSBLUFF    CLOUDY    55  54  96 SE9       29.93S
ALLIANCE       CLOUDY    57  54  89 E8G21     29.93R
CHADRON        CLOUDY    57  52  83 E8        29.96S
SIDNEY         TSTM      51  49  92 W14       29.95R FOG
$$

NEZ057>060-069>072-079>082-240200-
SOUTHWEST NEBRASKA

CITY           SKY/WX    TMP DP  RH WIND       PRES   REMARKS
NORTH PLATTE   LGT RAIN  56  54  93 E16G23    29.97S
IMPERIAL       CLOUDY    61  53  75 E15G22    29.91R
LEXINGTON      CLOUDY    59  56  92 E12       29.97S
MCCOOK         CLOUDY    60  55  83 SE14      29.94R
$$

NEZ005>010-023>029-035>040-094-240200-
NORTH CENTRAL NEBRASKA

CITY           SKY/WX    TMP DP  RH WIND       PRES   REMARKS
VALENTINE      CLOUDY    55  54  96 E9        30.02F
AINSWORTH      CLOUDY    56  55  97 E8        30.03S
BROKEN BOW     LGT RAIN  57  55  93 E12       29.99S
ORD            CLOUDY    58  54  86 E9        29.99F
$$

NEZ041-046>049-061>064-073>077-083>087-240200-
SOUTH CENTRAL NEBRASKA

CITY           SKY/WX    TMP DP  RH WIND       PRES   REMARKS
GRAND ISLAND   CLOUDY    59  56  89 E14       30.00F
AURORA         CLOUDY    60  59  96 E13       29.99S
HASTINGS       CLOUDY    59  56  89 E10       29.98R
KEARNEY *      CLOUDY    59  55  88 E15       29.98S
$$

NEZ011>018-030>034-042>045-240200-
NORTHEAST NEBRASKA

CITY           SKY/WX    TMP DP  RH WIND       PRES   REMARKS
NORFOLK        LGT RAIN  60  57  89 E5        30.04F
ALBION         CLOUDY    59  54  83 E9        30.01F
BLAIR          CLOUDY    63  57  81 NE7       30.04F
COLUMBUS *     CLOUDY    59  54  82 E12       30.04F
FREMONT        CLOUDY    63  58  83 E7        30.04F
TEKAMAH        CLOUDY    65  57  75 SE7       30.05F
$$

NEZ050>053-065>068-078-088>093-240200-
SOUTHEAST NEBRASKA

CITY           SKY/WX    TMP DP  RH WIND       PRES   REMARKS
LINCOLN        CLOUDY    62  60  93 E8        30.03R
OMAHA EPPLEY   LGT RAIN  65  59  81 SE9       30.03F
BEATRICE       CLOUDY    61  59  93 E12       30.00S
FALLS CITY     LGT RAIN  62  60  93 SE10      30.05S FOG
NEBRASKA CITY  DRIZZLE   61  61  99 SE8       30.04F
PLATTSMOUTH    CLOUDY    61  59  92 SE9       30.04F
$$

NEZ044-045-051>053-067-240200-
OMAHA AREA

CITY           SKY/WX    TMP DP  RH WIND       PRES   REMARKS
OMAHA EPPLEY   LGT RAIN  65  59  81 SE9       30.03F
BLAIR          CLOUDY    63  57  81 NE7       30.04F
FREMONT        CLOUDY    63  58  83 E7        30.04F
OFFUTT AFB     CLOUDY    63  61  94 E7        30.03S
PLATTSMOUTH    CLOUDY    61  59  92 SE9       30.04F
WAHOO          CLOUDY    62  59  90 E6        30.04S
$$



USA.gov is the U.S. government's official web portal to all federal, state and local government web resources and services.